Temp
87 82 78 72 72 72 71 71 72 72 72 73 73 73 73 73 73 74 74 73 73 72 71 71 71 70 70 69 69 70 74 87
88 84 82 82 80 71 70 70 70 71 71 71 70 71 71 72 72 73 73 72 72 71 71 70 70 69 69 68 69 70 80 73
86 85 85 84 85 80 71 71 71 70 72 70 71 83 82 79 77 71 72 72 71 71 70 70 69 69 69 68 67 85 84 78
86 85 84 85 88 85 82 82 82 82 82 81 82 84 86 86 79 71 71 71 71 70 70 68 69 82 79 70 81 83 80 83
88 86 82 82 84 85 84 86 84 84 83 84 82 86 86 86 84 81 80 73 79 75 75 79 81 81 82 82 83 79 85 82
89 87 83 81 85 84 83 87 86 85 85 84 84 85 84 85 87 84 82 83 82 81 82 81 83 81 79 84 84 83 77 85
90 88 84 82 81 84 84 84 86 87 87 86 86 85 83 85 86 86 85 86 85 84 85 83 82 83 80 84 83 83 79 83
92 88 86 84 82 83 83 84 84 84 87 86 83 83 82 84 86 86 86 87 87 86 85 86 84 77 78 80 79 78 79 81
89 91 88 84 83 83 84 85 85 85 85 85 80 79 84 84 85 86 87 86 84 85 85 85 85 84 81 78 79 79 78 79
87 90 89 86 84 85 85 87 87 87 85 86 82 76 81 83 83 86 88 86 85 84 84 83 83 83 81 77 79 80 77 77
81 83 84 85 85 85 85 84 86 88 87 87 85 80 76 81 81 85 86 84 83 83 82 82 78 81 81 78 79 79 75 77
79 81 81 83 83 85 85 84 84 87 88 88 85 82 77 77 81 83 82 80 78 81 80 82 78 79 83 77 75 78 76 73
73 76 78 81 83 82 82 80 83 85 87 86 86 85 77 74 79 81 77 78 76 75 77 75 76 78 76 72 71 72 72 74
65 68 75 79 82 85 84 85 86 86 86 84 86 85 81 78 76 75 78 75 75 72 72 68 71 75 72 70 64 66 73 74
60 61 65 74 78 82 84 83 84 83 83 84 84 84 83 78 77 78 76 77 74 72 70 66 64 66 72 69 59 59 67 73
56 56 57 65 69 77 78 79 80 83 83 84 84 83 82 80 78 77 76 74 75 73 72 67 65 61 63 67 71 73 66 65
52 51 52 53 55 63 68 74 80 82 84 81 80 80 78 77 75 74 72 72 74 71 68 66 64 62 62 64 65 68 71 65
49 46 47 47 48 53 56 60 73 78 81 80 78 77 76 77 75 71 74 72 71 70 67 68 66 65 64 64 63 63 65 66
44 42 43 44 44 48 50 53 58 70 77 77 74 73 71 73 73 69 69 68 66 69 68 70 69 67 65 63 65 65 68 69
44 39 39 42 43 44 49 49 51 64 72 73 72 65 62 62 62 62 63 66 65 64 67 70 70 67 65 65 64 64 67 67
MSLP
1008.00 1009.09 1009.61 1009.99 1010.42 1010.78 1011.14 1011.44 1011.65 1011.97 1012.26 1012.52 1012.68 1013.01 1013.44 1013.69 1013.87 1014.00 1014.15 1014.38 1014.68 1014.95 1015.20 1015.44 1015.65 1015.79 1015.90 1015.94 1015.79 1015.48 1015.22 1013.95
1008.14 1008.86 1009.29 1009.66 1010.28 1010.90 1011.23 1011.54 1011.86 1012.18 1012.55 1012.82 1013.07 1013.35 1013.52 1013.65 1013.85 1014.12 1014.34 1014.63 1014.89 1015.14 1015.41 1015.67 1015.82 1016.01 1016.07 1016.08 1015.88 1015.58 1015.14 1015.38
1008.08 1008.55 1008.89 1009.17 1009.66 1010.46 1011.33 1011.70 1011.94 1012.26 1012.62 1013.03 1013.29 1013.03 1013.37 1013.70 1013.65 1013.89 1014.31 1014.60 1014.86 1015.13 1015.45 1015.75 1015.99 1016.18 1016.30 1016.30 1016.09 1014.89 1014.55 1015.07
1008.06 1008.31 1008.63 1008.85 1009.02 1009.72 1010.74 1011.11 1011.49 1011.76 1012.01 1012.42 1012.70 1012.56 1012.61 1012.75 1013.24 1014.02 1014.39 1014.65 1014.86 1015.12 1015.44 1015.78 1015.90 1015.41 1015.97 1016.47 1015.67 1014.68 1014.78 1014.69
1007.54 1008.22 1009.01 1009.26 1009.06 1009.48 1009.95 1010.21 1010.70 1011.04 1011.31 1011.58 1012.18 1011.91 1011.94 1012.61 1012.97 1013.76 1014.09 1014.72 1014.64 1015.04 1015.28 1015.17 1014.87 1014.35 1014.59 1015.25 1014.97 1014.82 1014.57 1014.73
1006.99 1008.00 1008.79 1009.24 1008.91 1009.29 1009.68 1009.46 1009.81 1010.26 1010.58 1011.06 1011.26 1011.44 1011.31 1011.71 1011.87 1012.87 1013.32 1013.48 1013.48 1014.06 1014.14 1014.20 1014.00 1014.09 1014.28 1014.28 1014.48 1014.41 1014.72 1014.76
1006.48 1007.40 1008.12 1008.75 1008.96 1008.79 1009.07 1009.20 1009.28 1009.36 1009.77 1010.29 1010.65 1010.89 1011.14 1011.18 1011.32 1011.87 1012.42 1012.56 1012.99 1013.05 1013.05 1013.64 1013.58 1013.53 1013.83 1013.99 1014.24 1014.38 1014.78 1015.19
1005.88 1006.85 1007.70 1008.33 1008.73 1008.59 1008.68 1009.01 1009.24 1009.47 1009.30 1009.61 1010.41 1010.79 1011.21 1011.08 1011.00 1011.20 1011.65 1011.89 1012.24 1012.48 1012.73 1012.83 1013.27 1013.98 1013.81 1013.91 1014.16 1014.44 1014.66 1015.05
1006.22 1006.06 1006.93 1007.73 1008.13 1008.44 1008.42 1008.44 1008.64 1008.77 1008.77 1009.02 1009.88 1010.66 1010.25 1010.60 1010.80 1010.69 1010.86 1011.35 1011.85 1012.17 1012.37 1012.53 1012.75 1013.16 1013.70 1013.99 1013.93 1014.11 1014.56 1015.05
1007.29 1006.69 1006.17 1006.91 1007.59 1007.86 1007.97 1007.83 1007.87 1007.98 1008.20 1008.33 1008.91 1010.08 1010.12 1010.05 1010.45 1010.17 1010.24 1010.76 1011.46 1011.84 1012.01 1012.26 1012.45 1012.71 1013.04 1013.77 1013.97 1013.76 1014.19 1014.95
1008.56 1008.09 1007.39 1006.82 1006.79 1007.25 1007.31 1007.41 1007.41 1007.24 1007.33 1007.56 1007.92 1009.04 1009.98 1009.79 1010.12 1009.63 1009.71 1010.35 1010.97 1011.46 1011.63 1011.82 1012.18 1012.43 1012.58 1013.12 1013.63 1013.79 1013.96 1014.42
1009.25 1008.86 1008.40 1007.73 1007.29 1006.73 1006.82 1006.87 1007.01 1006.68 1006.46 1006.67 1007.08 1007.79 1008.88 1009.45 1009.56 1009.26 1009.69 1009.88 1010.59 1011.06 1011.27 1011.60 1012.04 1012.32 1011.93 1012.39 1013.09 1013.74 1013.89 1014.11
1010.43 1009.58 1008.98 1008.17 1007.19 1006.72 1006.17 1006.10 1005.94 1005.89 1005.98 1006.06 1006.28 1006.55 1007.90 1008.89 1009.02 1009.00 1009.29 1009.60 1010.10 1010.61 1011.07 1011.49 1011.80 1012.31 1012.35 1012.56 1013.26 1013.54 1013.90 1013.87
1012.08 1011.15 1009.40 1008.67 1007.63 1006.36 1005.70 1005.04 1004.78 1004.79 1005.00 1005.23 1005.59 1005.93 1006.54 1007.38 1008.25 1008.32 1008.50 1009.20 1009.72 1010.08 1010.69 1011.31 1011.66 1012.08 1012.14 1012.63 1013.18 1013.75 1013.47 1013.63
1013.55 1012.67 1011.15 1009.07 1007.99 1006.83 1005.63 1004.96 1004.33 1004.16 1004.16 1004.28 1004.51 1004.96 1005.48 1006.31 1007.23 1007.55 1007.77 1008.18 1008.60 1009.42 1010.11 1010.83 1011.56 1012.25 1012.24 1012.37 1012.87 1012.55 1013.01 1013.06
1014.84 1014.09 1012.75 1010.68 1008.92 1006.71 1005.70 1004.76 1003.78 1003.16 1003.36 1003.52 1003.80 1004.13 1004.65 1005.32 1006.02 1006.57 1006.91 1007.31 1007.66 1008.10 1009.11 1009.95 1010.95 1011.59 1012.36 1012.31 1011.71 1011.58 1011.64 1011.92
1015.54 1015.06 1013.85 1012.55 1011.32 1009.31 1007.57 1005.31 1003.74 1003.34 1002.31 1002.60 1003.03 1003.61 1003.97 1004.69 1005.20 1005.68 1006.11 1006.56 1007.04 1007.76 1008.24 1009.12 1009.51 1008.53 1011.25 1011.95 1012.01 1011.71 1011.40 1011.62
1016.13 1015.49 1014.52 1013.69 1012.59 1010.89 1009.31 1007.17 1004.35 1002.81 1001.84 1001.65 1002.59 1003.24 1003.70 1004.05 1004.39 1004.97 1005.45 1005.72 1006.42 1007.29 1008.24 1008.83 1009.32 1008.73 1010.05 1010.71 1011.21 1011.12 1010.84 1010.94
1016.34 1016.00 1015.15 1014.36 1013.44 1012.08 1010.25 1008.23 1005.96 1003.41 1002.01 1001.62 1002.43 1002.83 1003.16 1003.27 1003.91 1004.35 1004.84 1005.62 1006.26 1006.71 1006.19 1007.13 1008.28 1008.85 1009.67 1009.77 1010.55 1010.65 1010.32 1010.31
1016.93 1016.61 1015.94 1014.83 1014.15 1012.88 1010.98 1009.29 1007.43 1004.66 1002.45 1002.29 1002.46 1003.11 1003.61 1003.68 1003.89 1004.57 1005.11 1005.50 1006.06 1005.27 1004.97 1007.11 1008.21 1008.59 1008.67 1009.31 1009.88 1009.96 1010.08 1009.97
Wind_Speed
9 13 12 10 8 8 7 7 8 9 8 9 10 10 8 8 8 8 8 9 9 9 9 9 9 9 8 6 6 9 9 4
8 12 13 12 11 6 5 6 6 7 7 7 6 5 7 9 8 8 8 9 9 9 9 9 9 8 7 5 5 9 3 10
10 11 12 12 12 11 7 5 5 7 8 6 7 10 12 12 10 13 9 10 10 10 10 9 8 6 5 6 8 8 4 5
11 11 11 11 10 11 12 11 10 11 11 13 11 12 11 11 10 10 10 10 11 11 10 9 10 9 7 5 7 6 5 2
13 12 11 12 10 7 6 8 8 9 14 13 13 10 9 9 7 7 9 10 8 10 10 9 12 6 8 8 10 5 3 1
13 13 12 12 9 9 10 9 10 9 12 14 10 8 9 9 9 10 10 10 11 11 9 11 13 10 8 10 9 5 1 3
10 13 13 12 13 10 10 11 8 11 12 13 11 11 9 10 9 10 10 10 10 10 11 11 10 11 5 9 9 8 5 2
9 13 14 14 13 13 10 10 12 11 10 11 13 11 11 12 10 11 11 10 10 10 10 10 9 6 6 7 6 5 5 6
13 9 14 15 15 13 11 11 12 11 11 12 14 15 12 12 11 10 11 10 9 9 10 10 9 11 11 6 7 6 5 7
17 12 8 15 14 13 11 12 12 11 11 11 16 15 17 12 12 11 11 10 10 10 9 10 10 9 8 7 9 7 6 8
16 17 14 13 13 13 12 13 12 11 11 12 14 16 16 12 12 11 11 9 9 10 10 9 7 10 8 7 6 6 7 8
17 15 16 13 11 9 10 12 12 12 11 12 15 14 17 15 13 13 12 9 10 11 12 11 8 10 11 7 6 4 4 6
24 20 16 13 10 10 11 12 11 12 12 15 16 14 16 15 14 13 12 12 12 12 10 11 9 9 8 1 2 2 5 6
25 27 23 16 13 12 9 10 11 11 12 14 15 16 17 17 18 14 15 12 15 13 12 6 7 9 9 4 5 4 8 9
25 27 26 24 19 14 13 10 11 10 10 10 14 18 17 18 19 15 16 14 13 14 12 11 7 5 13 7 3 6 7 10
22 24 25 25 29 18 17 14 14 12 12 11 12 16 18 17 18 17 16 12 15 14 13 12 11 8 5 11 10 6 7 6
20 22 24 25 26 25 18 21 13 13 11 15 14 13 15 15 16 18 17 14 14 13 15 15 14 11 8 9 11 10 10 6
20 21 20 22 24 24 23 24 22 15 15 12 11 10 11 17 16 13 17 16 15 13 13 12 11 9 9 10 9 9 11 10
18 22 20 20 22 22 22 22 25 22 19 11 13 10 10 15 18 14 12 12 8 15 14 12 12 12 13 9 10 11 9 11
20 19 21 19 21 22 20 21 15 17 15 12 10 5 3 2 5 4 4 5 9 8 6 9 10 11 13 12 10 10 11 10
Wind_Direction
151 177 169 156 162 166 167 164 162 161 161 165 165 165 168 172 176 169 158 144 144 152 155 151 151 153 156 173 221 270 283 157
185 185 180 175 177 160 160 160 162 159 161 161 154 151 163 172 175 176 159 147 155 159 163 157 156 159 168 164 233 269 327 286
200 191 187 183 188 175 174 174 163 154 159 150 164 200 186 175 201 146 166 157 162 165 165 153 158 149 169 175 227 232 300 137
208 200 191 192 193 176 196 197 204 201 197 185 208 214 191 198 176 154 169 164 166 169 164 151 186 180 183 206 232 228 240 172
208 200 197 200 193 194 202 202 200 202 206 202 205 207 190 206 167 180 190 183 183 181 174 194 204 208 176 197 232 198 218 209
205 220 197 207 198 189 199 207 194 202 204 203 197 220 192 199 200 195 205 184 201 191 189 204 203 239 170 196 231 240 148 118
224 204 208 209 221 196 203 216 211 203 203 195 214 205 218 210 213 191 205 197 210 195 206 201 211 214 217 212 207 241 148 152
235 217 216 214 212 224 198 208 205 224 210 210 207 207 208 217 212 204 204 215 211 212 220 201 199 227 202 209 211 212 192 178
330 254 213 218 222 223 221 213 212 206 223 207 184 218 217 212 224 213 208 206 211 217 216 226 211 201 206 205 226 215 171 182
338 319 261 209 227 230 225 227 214 218 207 217 197 201 234 204 217 222 214 199 202 216 214 215 225 215 220 188 212 215 163 177
344 337 320 305 221 232 233 232 236 222 220 214 204 196 209 223 221 218 212 196 207 211 217 217 203 242 212 188 222 224 171 185
340 334 328 313 307 254 243 245 238 236 226 221 215 194 202 214 215 220 221 192 194 213 218 214 194 222 233 191 182 232 182 193
342 328 318 312 289 263 242 236 236 228 231 232 220 206 196 208 221 219 192 206 195 204 212 218 208 219 237 227 174 236 249 198
340 335 324 306 297 292 256 255 239 236 225 225 227 219 200 201 213 213 201 201 204 191 194 195 218 206 216 221 217 227 240 227
343 339 333 320 300 289 279 263 248 247 234 240 221 221 214 202 210 213 209 210 194 188 181 173 186 204 219 183 167 221 211 223
348 343 341 339 335 306 285 278 266 228 230 229 233 220 220 213 213 212 211 196 196 185 180 177 172 190 219 241 255 249 210 203
351 346 346 344 342 333 317 295 262 261 234 226 223 229 224 217 211 216 211 203 196 188 181 189 192 157 201 214 242 242 243 258
350 350 345 345 339 336 331 319 289 259 248 228 227 218 222 221 214 210 214 212 195 193 191 193 208 187 197 206 221 221 231 239
359 347 342 346 338 334 334 332 329 289 259 239 227 224 217 221 214 207 213 210 209 210 189 184 208 198 205 197 218 235 241 242
353 355 336 342 343 334 334 338 340 321 264 255 243 186 166 149 125 132 234 224 190 203 165 208 222 213 206 210 217 229 235 240